When you browse on this site, cookies collect data to enhance your experience and personalize the content and advertising you see.
Visit our Privacy Policy to learn more. By continuing to use the site, you agree to this use of cookies and data.
  • In Hungary
  • List of Countries
  • For 7 days
  • Water Temperature
  • Satellite Maps
  • Weather Map
  • News
  • Weather Widgets
  • user-avatar
    Login

    Hourly Weather Jandaia do Sul

    Today, 20 January, Sunday

    Time Temperature Precipitation Wind Pressure Humidity
    00:00 +20°C° 0 mm 0 mps 695 mmHg 94%
    01:00 +20°C° 0 mm 0 mps 695 mmHg 95%
    02:00 +19°C° 0 mm 0 mps 694 mmHg 95%
    03:00 +19°C° 0 mm 0 mps 694 mmHg 96%
    04:00 +19°C° 0 mm 0 mps 694 mmHg 96%
    05:00 +19°C° 0 mm 0 mps 694 mmHg 96%
    06:00 +21°C° 0 mm 1 mps 694 mmHg 97%
    07:00 +22°C° 0.4 mm 1 mps 695 mmHg 94%
    08:00 +24°C° 0.4 mm 1 mps 696 mmHg 91%
    09:00 +25°C° 0.4 mm 1 mps 696 mmHg 89%
    10:00 +26°C° 1.2 mm 1 mps 696 mmHg 86%
    11:00 +27°C° 1.2 mm 1 mps 696 mmHg 83%
    12:00 +28°C° 1.2 mm 2 mps 696 mmHg 80%
    13:00 +28°C° 1 mm 2 mps 696 mmHg 80%
    14:00 +28°C° 1 mm 2 mps 696 mmHg 81%
    15:00 +28°C° 1 mm 2 mps 695 mmHg 81%
    16:00 +28°C° 0.5 mm 1 mps 695 mmHg 82%
    17:00 +28°C° 0.5 mm 1 mps 695 mmHg 82%
    18:00 +27°C° 0.5 mm 1 mps 695 mmHg 83%
    19:00 +26°C° 0.1 mm 1 mps 695 mmHg 86%
    20:00 +23°C° 0.1 mm 0 mps 695 mmHg 89%
    21:00 +21°C° 0.1 mm 0 mps 695 mmHg 92%
    22:00 +21°C° 0.1 mm 0 mps 695 mmHg 93%
    23:00 +23°C° 0.1 mm 1 mps 695 mmHg 94%

    Tomorrow, 21 January, Monday

    Time Temperature Precipitation Wind Pressure Humidity
    00:00 +22°C° 0.1 mm 1 mps 696 mmHg 94%
    01:00 +22°C° 0 mm 1 mps 695 mmHg 95%
    02:00 +22°C° 0 mm 1 mps 695 mmHg 95%
    03:00 +22°C° 0 mm 1 mps 695 mmHg 95%
    04:00 +21°C° 0 mm 1 mps 695 mmHg 95%
    05:00 +21°C° 0 mm 1 mps 695 mmHg 96%
    06:00 +21°C° 0 mm 1 mps 695 mmHg 96%
    07:00 +23°C° 0 mm 1 mps 696 mmHg 91%
    08:00 +25°C° 0 mm 1 mps 697 mmHg 86%
    09:00 +27°C° 0 mm 1 mps 698 mmHg 81%
    10:00 +28°C° 0.5 mm 2 mps 698 mmHg 77%
    11:00 +29°C° 0.5 mm 2 mps 698 mmHg 74%
    12:00 +30°C° 0.5 mm 2 mps 698 mmHg 70%
    13:00 +30°C° 1.9 mm 2 mps 697 mmHg 73%
    14:00 +30°C° 1.9 mm 2 mps 696 mmHg 75%
    15:00 +30°C° 1.9 mm 2 mps 696 mmHg 78%
    16:00 +29°C° 1.8 mm 2 mps 696 mmHg 81%
    17:00 +28°C° 1.8 mm 2 mps 695 mmHg 85%
    18:00 +27°C° 1.8 mm 1 mps 695 mmHg 89%
    19:00 +26°C° 0.2 mm 1 mps 696 mmHg 90%
    20:00 +25°C° 0.2 mm 1 mps 696 mmHg 90%
    21:00 +22°C° 0.2 mm 0 mps 696 mmHg 91%
    22:00 +22°C° 0 mm 0 mps 696 mmHg 91%
    23:00 +21°C° 0 mm 0 mps 696 mmHg 91%

    Day after tomorrow, 22 January, Tuesday

    Time Temperature Precipitation Wind Pressure Humidity
    00:00 +21°C° 0 mm 0 mps 696 mmHg 91%
    01:00 +21°C° 0 mm 0 mps 696 mmHg 91%
    02:00 +22°C° 0 mm 1 mps 696 mmHg 91%
    03:00 +22°C° 0 mm 1 mps 695 mmHg 92%
    04:00 +22°C° 0 mm 1 mps 695 mmHg 92%
    05:00 +22°C° 0 mm 1 mps 695 mmHg 92%
    06:00 +22°C° 0 mm 1 mps 696 mmHg 92%
    07:00 +22°C° 0 mm 0 mps 696 mmHg 87%
    08:00 +24°C° 0 mm 0 mps 697 mmHg 82%
    09:00 +26°C° 0 mm 0 mps 698 mmHg 77%
    10:00 +27°C° 0 mm 0 mps 698 mmHg 71%
    11:00 +31°C° 0 mm 1 mps 698 mmHg 65%
    12:00 +32°C° 0 mm 1 mps 698 mmHg 59%
    13:00 +32°C° 0 mm 2 mps 697 mmHg 59%
    14:00 +32°C° 0 mm 2 mps 697 mmHg 59%
    15:00 +34°C° 0 mm 2 mps 696 mmHg 58%
    16:00 +31°C° 0.4 mm 2 mps 696 mmHg 66%
    17:00 +30°C° 0.4 mm 2 mps 695 mmHg 74%
    18:00 +29°C° 0.4 mm 1 mps 695 mmHg 82%
    19:00 +27°C° 1.1 mm 1 mps 695 mmHg 84%
    20:00 +26°C° 1.1 mm 1 mps 695 mmHg 86%
    21:00 +23°C° 1.1 mm 0 mps 696 mmHg 88%
    22:00 +24°C° 0 mm 1 mps 696 mmHg 88%
    23:00 +24°C° 0 mm 1 mps 696 mmHg 89%

    23 January, Wednesday

    Time Temperature Precipitation Wind Pressure Humidity
    00:00 +24°C° 0 mm 1 mps 696 mmHg 90%
    01:00 +24°C° 0 mm 1 mps 696 mmHg 90%
    02:00 +23°C° 0 mm 1 mps 695 mmHg 90%
    03:00 +23°C° 0 mm 1 mps 695 mmHg 90%
    04:00 +23°C° 0 mm 1 mps 695 mmHg 91%
    05:00 +23°C° 0 mm 1 mps 695 mmHg 92%
    06:00 +23°C° 0 mm 1 mps 696 mmHg 92%
    07:00 +25°C° 0 mm 1 mps 696 mmHg 87%
    08:00 +27°C° 0 mm 1 mps 697 mmHg 81%
    09:00 +29°C° 0 mm 1 mps 698 mmHg 75%
    10:00 +30°C° 0.3 mm 1 mps 698 mmHg 72%
    11:00 +31°C° 0.3 mm 1 mps 698 mmHg 68%
    12:00 +32°C° 0.3 mm 1 mps 698 mmHg 64%
    13:00 +32°C° 1.4 mm 1 mps 697 mmHg 67%
    14:00 +31°C° 1.4 mm 2 mps 696 mmHg 70%
    15:00 +31°C° 1.4 mm 2 mps 696 mmHg 73%
    16:00 +30°C° 1.6 mm 2 mps 695 mmHg 77%
    17:00 +29°C° 1.6 mm 1 mps 695 mmHg 81%
    18:00 +29°C° 1.6 mm 1 mps 695 mmHg 85%
    19:00 +27°C° 1.3 mm 1 mps 695 mmHg 87%
    20:00 +26°C° 1.3 mm 1 mps 695 mmHg 89%
    21:00 +24°C° 1.3 mm 1 mps 695 mmHg 90%
    22:00 +24°C° 0 mm 1 mps 695 mmHg 91%
    23:00 +24°C° 0 mm 2 mps 695 mmHg 91%

    24 January, Thursday

    Time Temperature Precipitation Wind Pressure Humidity
    00:00 +23°C° 0 mm 2 mps 695 mmHg 92%
    01:00 +23°C° 0.3 mm 2 mps 695 mmHg 93%
    02:00 +23°C° 0.3 mm 2 mps 694 mmHg 93%
    03:00 +23°C° 0.3 mm 2 mps 694 mmHg 94%
    04:00 +23°C° 0 mm 2 mps 694 mmHg 94%
    05:00 +23°C° 0 mm 1 mps 694 mmHg 95%
    06:00 +22°C° 0 mm 1 mps 694 mmHg 95%
    07:00 +24°C° 0 mm 1 mps 695 mmHg 90%
    08:00 +26°C° 0 mm 1 mps 696 mmHg 84%
    09:00 +28°C° 0 mm 1 mps 697 mmHg 79%
    10:00 +29°C° 0 mm 1 mps 697 mmHg 73%
    11:00 +31°C° 0 mm 1 mps 697 mmHg 67%
    12:00 +33°C° 0 mm 1 mps 697 mmHg 60%
    13:00 +33°C° 1.5 mm 1 mps 696 mmHg 63%
    14:00 +32°C° 1.5 mm 1 mps 695 mmHg 66%
    15:00 +32°C° 1.5 mm 1 mps 694 mmHg 69%
    16:00 +31°C° 2.2 mm 1 mps 694 mmHg 74%
    17:00 +29°C° 2.2 mm 1 mps 694 mmHg 79%
    18:00 +28°C° 2.2 mm 1 mps 694 mmHg 83%
    19:00 +27°C° 2 mm 2 mps 694 mmHg 86%
    20:00 +25°C° 2 mm 3 mps 694 mmHg 89%
    21:00 +24°C° 2 mm 3 mps 695 mmHg 92%
    22:00 +22°C° 0.1 mm 3 mps 695 mmHg 93%
    23:00 +23°C° 0.1 mm 2 mps 695 mmHg 94%

    25 January, Friday

    Time Temperature Precipitation Wind Pressure Humidity
    00:00 +23°C° 0.1 mm 2 mps 695 mmHg 95%
    01:00 +21°C° 0 mm 2 mps 694 mmHg 95%
    02:00 +21°C° 0 mm 2 mps 694 mmHg 95%
    03:00 +20°C° 0 mm 2 mps 693 mmHg 96%
    04:00 +20°C° 0 mm 2 mps 693 mmHg 96%
    05:00 +20°C° 0 mm 2 mps 693 mmHg 96%
    06:00 +20°C° 0 mm 2 mps 694 mmHg 97%
    07:00 +21°C° 0 mm 2 mps 694 mmHg 91%
    08:00 +24°C° 0 mm 2 mps 695 mmHg 86%
    09:00 +26°C° 0 mm 3 mps 696 mmHg 81%
    10:00 +27°C° 0.1 mm 2 mps 696 mmHg 76%
    11:00 +29°C° 0.1 mm 2 mps 696 mmHg 70%
    12:00 +30°C° 0.1 mm 2 mps 696 mmHg 64%
    13:00 +30°C° 1.1 mm 2 mps 696 mmHg 70%
    14:00 +29°C° 1.1 mm 2 mps 695 mmHg 75%
    15:00 +29°C° 1.1 mm 3 mps 695 mmHg 80%
    16:00 +28°C° 1 mm 2 mps 695 mmHg 82%
    17:00 +28°C° 1 mm 2 mps 695 mmHg 84%
    18:00 +28°C° 1 mm 1 mps 695 mmHg 86%
    19:00 +26°C° 0.1 mm 1 mps 695 mmHg 88%
    20:00 +25°C° 0.1 mm 2 mps 695 mmHg 91%
    21:00 +23°C° 0.1 mm 2 mps 695 mmHg 94%
    22:00 +23°C° 0 mm 2 mps 695 mmHg 94%
    23:00 +21°C° 0 mm 2 mps 695 mmHg 94%
    Show more